Wainwright, AK

12:20 PM AKST on February 25, 2017 (GMT -0900)
Wainwright

Weather History for PAWI - August, 2014

Change the Weather History Date:

Monday, August 4, 2014

  Actual Average (PABR) Record (PABR)
Temperature  
Mean Temperature 42 °F -  
Max Temperature 48 °F 45 °F 69 °F (1977)
Min Temperature 37 °F 34 °F 26 °F (1932)
Degree Days  
Heating Degree Days 22    
Moisture  
Dew Point 36 °F    
Average Humidity 81    
Maximum Humidity 100    
Minimum Humidity 66    
Precipitation  
Precipitation 0.00 in - - ()
Sea Level Pressure  
Sea Level Pressure 30.08 in    
Wind  
Wind Speed 12 mph (ENE)    
Max Wind Speed 15 mph    
Max Gust Speed 21 mph    
Visibility 7 miles    
Events      
Averages and records for this station are not official NWS values.
T = Trace of Precipitation, MM = Missing Value Source: NWS Daily Summary

Daily Weather History Graph

Daily Weather History Graph

Search for Another Location

Airport or City:

Trip Planner

Search our weather history database for the weather conditions in past years. The results will help you decide how hot, cold, wet, or windy it might be!

Date:

Astronomy

Aug. 04, 2014 Rise Set
Actual Time 4:15 AM AKDT 1:09 AM AKDT
Civil Twilight Sun does not rise Sun does not rise
Nautical Twilight Sun does not rise Sun does not rise
Astronomical Twilight Sun does not rise Sun does not rise
Moon 7:16 PM AKDT (8/4) 11:30 PM AKDT (8/4)
Length of Visible Light 24h 00m
Length of Day
20h 53m
First Quarter, 59% of the Moon is Illuminated
Aug 4
First Quarter
Aug 10
Full
Aug 17
Last Quarter
Aug 25
New
Sep 2
First Quarter

Hourly Weather History & Observations

Time (AKDT) Temp. Windchill Dew Point Humidity Pressure Visibility Wind Dir Wind Speed Gust Speed Precip Events Conditions
12:38 AM 41.0 °F 34.3 °F 39.2 °F 93% 30.08 in 4.0 mi NE 11.5 mph - N/A   Overcast
1:53 AM 39.9 °F 35.1 °F 37.9 °F 93% 30.09 in 7.0 mi NE 6.9 mph - N/A   Overcast
2:53 AM 39.9 °F 34.5 °F 37.9 °F 93% 30.09 in 10.0 mi NE 8.1 mph - N/A   Overcast
4:02 AM 39.2 °F 33.0 °F 37.4 °F 93% 30.09 in 2.0 mi NE 9.2 mph - N/A   Overcast
4:35 AM 39.2 °F 32.5 °F 37.4 °F 93% 30.09 in 1.5 mi NE 10.4 mph - N/A   Overcast
4:53 AM 39.0 °F 32.3 °F 37.0 °F 93% 30.09 in 1.8 mi NE 10.4 mph - N/A   Overcast
5:19 AM 37.4 °F 29.3 °F 37.4 °F 100% 30.09 in 2.0 mi ENE 12.7 mph - N/A   Overcast
5:44 AM 37.4 °F 29.3 °F 35.6 °F 93% 30.08 in 1.0 mi ENE 12.7 mph - N/A   Overcast
5:59 AM 37.4 °F 29.3 °F 35.6 °F 93% 30.08 in 0.8 mi ENE 12.7 mph - N/A   Overcast
6:18 AM 37.4 °F 30.3 °F 35.6 °F 93% 30.08 in 1.2 mi ENE 10.4 mph - N/A   Overcast
6:26 AM 37.4 °F 30.3 °F 35.6 °F 93% 30.09 in 0.8 mi ENE 10.4 mph - N/A   Overcast
6:46 AM 37.4 °F 29.8 °F 35.6 °F 93% 30.09 in 1.0 mi ENE 11.5 mph - N/A   Overcast
6:53 AM 37.0 °F 28.9 °F 36.0 °F 96% 30.09 in 0.8 mi ENE 12.7 mph - N/A   Overcast
7:53 AM 37.9 °F 30.0 °F 36.0 °F 93% 30.09 in 2.5 mi ENE 12.7 mph - N/A   Overcast
8:21 AM 39.2 °F 31.2 °F 37.4 °F 93% 30.08 in 5.0 mi ENE 13.8 mph - N/A   Overcast
8:53 AM 39.9 °F 32.5 °F 37.0 °F 89% 30.09 in 10.0 mi ENE 12.7 mph - N/A   Overcast
9:00 AM 39.2 °F 31.6 °F 37.4 °F 93% 30.08 in 10.0 mi ENE 12.7 mph - N/A   Overcast
9:53 AM 41.0 °F 33.9 °F 37.0 °F 86% 30.09 in 10.0 mi East 12.7 mph - N/A   Overcast
10:45 AM 42.8 °F 36.6 °F 35.6 °F 76% 30.09 in 10.0 mi East 11.5 mph - N/A   Overcast
10:53 AM 42.1 °F 35.2 °F 36.0 °F 79% 30.09 in 10.0 mi East 12.7 mph - N/A   Overcast
11:53 AM 44.1 °F 37.4 °F 35.1 °F 71% 30.09 in 10.0 mi East 13.8 mph - N/A   Mostly Cloudy
12:10 PM 44.6 °F 38.8 °F 35.6 °F 71% 30.08 in 10.0 mi East 11.5 mph - N/A   Mostly Cloudy
12:53 PM 45.0 °F 38.9 °F 35.1 °F 68% 30.09 in 10.0 mi East 12.7 mph - N/A   Mostly Cloudy
1:34 PM 46.4 °F 40.1 °F 35.6 °F 66% 30.08 in 10.0 mi ENE 15.0 mph - N/A   Scattered Clouds
1:50 PM 46.4 °F 40.1 °F 35.6 °F 66% 30.08 in 10.0 mi ENE 15.0 mph - N/A   Mostly Cloudy
1:53 PM 46.0 °F 39.6 °F 36.0 °F 68% 30.08 in 10.0 mi East 15.0 mph - N/A   Scattered Clouds
2:04 PM 46.4 °F 40.7 °F 35.6 °F 66% 30.08 in 10.0 mi East 12.7 mph 20.7 mph N/A   Mostly Cloudy
2:51 PM 46.4 °F 40.7 °F 35.6 °F 66% 30.08 in 10.0 mi East 12.7 mph - N/A   Mostly Cloudy
2:53 PM 45.0 °F 39.7 °F 36.0 °F 71% 30.08 in 10.0 mi East 10.4 mph - N/A   Mostly Cloudy
4:53 PM 46.9 °F - 37.9 °F 71% 30.07 in 10.0 mi NE 13.8 mph - N/A   Mostly Cloudy
5:25 PM 48.2 °F - 37.4 °F 66% 30.06 in 10.0 mi NE 11.5 mph 19.6 mph N/A   Scattered Clouds
5:53 PM 46.9 °F - 37.9 °F 71% 30.06 in 10.0 mi NE 15.0 mph - N/A   Clear
6:53 PM 48.0 °F - 37.0 °F 66% 30.05 in 10.0 mi NE 13.8 mph - N/A   Clear
7:53 PM 48.0 °F - 37.9 °F 68% 30.05 in 10.0 mi NE 15.0 mph 20.7 mph N/A   Clear
8:53 PM 48.0 °F - 37.0 °F 66% 30.04 in 10.0 mi ENE 15.0 mph - N/A   Clear
10:53 PM 44.1 °F 37.1 °F 35.1 °F 71% 30.05 in 10.0 mi ENE 15.0 mph - N/A   Clear
11:53 PM 39.9 °F 32.9 °F 35.1 °F 83% 30.06 in 10.0 mi ENE 11.5 mph - N/A   Clear